Location: Unspecified
(43.4354°N, 0.0000°E)
Time: 01:13:41
(UTC+00:00)

Courier 1B - Pass Details

Date: 19 June 2019
Orbit: 962 x 1209 km, 28.3° (Epoch: 16 August)

Event Time Altitude Azimuth Distance (km) Brightness Sun altitude
Rises 21:07:30 0° 242° (WSW) 3,984 10.9 -12.1°
Reaches altitude 10° 21:10:47 10° 230° (SW) 3,059 10.1 -12.5°
Maximum altitude 21:16:46 26° 178° (S) 2,165 8.9 -13.2°
Enters shadow 21:20:30 18° 141° (SE) 2,580 9.0 -13.6°
Drops below altitude 10° 21:22:54 10° 127° (SE) 3,137 - -13.9°
Sets 21:26:18 0° 115° (ESE) 4,106 - -14.2°
